�������l�o���
Date,Time,MP-1(��Sv/h),MP-2(��Sv/h),MP-3(��Sv/h),MP-4(��Sv/h),MP-5(��Sv/h),MP-6(��Sv/h),MP-7(��Sv/h),MP-8(��Sv/h),����,����(m/s),���J
2018/01/15,00:00,0.884,1.482,0.927,1.756,1.184,0.487,0.872,0.839,��쐼,4.2,��
2018/01/15,00:10,0.883,1.481,0.926,1.758,1.180,0.487,0.872,0.838,��쐼,3.9,��
2018/01/15,00:20,0.887,1.482,0.925,1.758,1.182,0.487,0.873,0.839,��쐼,4.1,��
2018/01/15,00:30,0.886,1.484,0.926,1.757,1.180,0.486,0.872,0.838,��쐼,4.4,��
2018/01/15,00:40,0.885,1.480,0.925,1.757,1.185,0.486,0.871,0.837,��쐼,4.6,��
2018/01/15,00:50,0.883,1.482,0.926,1.757,1.184,0.487,0.872,0.839,��쐼,4.3,��
2018/01/15,01:00,0.885,1.483,0.927,1.757,1.181,0.487,0.871,0.839,��쐼,4.8,��
2018/01/15,01:10,0.886,1.481,0.926,1.757,1.184,0.487,0.871,0.837,��쐼,5.2,��
2018/01/15,01:20,0.884,1.481,0.925,1.755,1.182,0.487,0.871,0.838,��쐼,4.7,��
2018/01/15,01:30,0.885,1.482,0.925,1.754,1.182,0.486,0.873,0.840,��쐼,4.6,��
2018/01/15,01:40,0.886,1.481,0.925,1.754,1.182,0.486,0.871,0.839,��,4.9,��
2018/01/15,01:50,0.886,1.481,0.924,1.754,1.183,0.486,0.870,0.838,��,5.3,��
2018/01/15,02:00,0.885,1.481,0.924,1.753,1.184,0.486,0.871,0.839,��,6.0,��
2018/01/15,02:10,0.887,1.482,0.924,1.754,1.184,0.486,0.873,0.839,��,5.3,��
2018/01/15,02:20,0.883,1.482,0.924,1.755,1.183,0.485,0.872,0.839,��,4.9,��
2018/01/15,02:30,0.884,1.479,0.924,1.757,1.182,0.487,0.873,0.838,��,5.4,��
2018/01/15,02:40,0.886,1.481,0.924,1.756,1.181,0.486,0.872,0.840,��,5.1,��
2018/01/15,02:50,0.885,1.482,0.924,1.756,1.181,0.487,0.874,0.839,��,4.9,��
2018/01/15,03:00,0.884,1.483,0.924,1.757,1.183,0.488,0.871,0.838,��,5.4,��
2018/01/15,03:10,0.884,1.481,0.926,1.755,1.182,0.487,0.873,0.840,��쐼,6.2,��
2018/01/15,03:20,0.883,1.481,0.925,1.757,1.184,0.486,0.872,0.837,��쐼,6.6,��
2018/01/15,03:30,0.884,1.481,0.924,1.753,1.185,0.486,0.874,0.838,��,7.4,��
2018/01/15,03:40,0.885,1.480,0.928,1.755,1.182,0.486,0.872,0.838,��,6.9,��
2018/01/15,03:50,0.884,1.478,0.925,1.755,1.184,0.487,0.873,0.838,��,6.0,��
2018/01/15,04:00,0.883,1.481,0.924,1.757,1.178,0.487,0.871,0.839,��,5.9,��
2018/01/15,04:10,0.885,1.481,0.924,1.756,1.180,0.485,0.872,0.837,��,5.8,��
2018/01/15,04:20,0.883,1.479,0.925,1.753,1.181,0.487,0.872,0.839,��,5.5,��
2018/01/15,04:30,0.884,1.479,0.926,1.753,1.183,0.486,0.870,0.839,��,7.7,��
2018/01/15,04:40,0.884,1.482,0.926,1.756,1.179,0.487,0.872,0.838,��,6.7,��
2018/01/15,04:50,0.885,1.480,0.926,1.754,1.180,0.486,0.872,0.839,��,6.3,��
2018/01/15,05:00,0.886,1.480,0.927,1.757,1.180,0.486,0.871,0.837,��,4.9,��
2018/01/15,05:10,0.885,1.481,0.925,1.754,1.180,0.486,0.872,0.838,��,5.7,��
2018/01/15,05:20,0.884,1.483,0.923,1.754,1.181,0.488,0.869,0.838,��,5.7,��
2018/01/15,05:30,0.885,1.480,0.925,1.756,1.181,0.487,0.871,0.838,��,5.0,��
2018/01/15,05:40,0.883,1.480,0.927,1.756,1.180,0.487,0.873,0.840,��쐼,3.7,��
2018/01/15,05:50,0.883,1.483,0.925,1.757,1.183,0.488,0.872,0.839,�쐼,3.4,��
2018/01/15,06:00,0.885,1.480,0.922,1.754,1.180,0.486,0.873,0.838,��,3.0,��
2018/01/15,06:10,0.885,1.480,0.926,1.756,1.180,0.488,0.873,0.839,���k��,2.6,��
2018/01/15,06:20,0.884,1.483,0.926,1.753,1.181,0.487,0.873,0.838,���k��,2.5,��
2018/01/15,06:30,0.885,1.479,0.924,1.753,1.177,0.486,0.873,0.839,���k��,2.5,��
2018/01/15,06:40,0.884,1.482,0.924,1.752,1.179,0.485,0.871,0.839,��,2.3,��
2018/01/15,06:50,0.882,1.482,0.926,1.753,1.179,0.486,0.872,0.841,���쐼,3.2,��
2018/01/15,07:00,0.884,1.477,0.925,1.753,1.179,0.487,0.871,0.837,�쐼,3.7,��
2018/01/15,07:10,0.884,1.480,0.925,1.752,1.180,0.487,0.872,0.837,�쐼,4.0,��
2018/01/15,07:20,0.884,1.480,0.926,1.755,1.178,0.486,0.874,0.841,��,4.1,��
2018/01/15,07:30,0.886,1.482,0.926,1.754,1.179,0.487,0.873,0.840,���쐼,3.7,��
2018/01/15,07:40,0.885,1.481,0.927,1.753,1.183,0.486,0.872,0.840,�쐼,4.9,��
2018/01/15,07:50,0.886,1.480,0.927,1.755,1.180,0.487,0.873,0.838,�쐼,5.3,��
2018/01/15,08:00,0.886,1.481,0.929,1.754,1.182,0.487,0.874,0.840,�쐼,5.6,��
2018/01/15,08:10,0.885,1.485,0.927,1.756,1.183,0.486,0.875,0.840,�쐼,6.2,��
2018/01/15,08:20,0.887,1.482,0.927,1.756,1.181,0.488,0.875,0.839,�쐼,6.0,��
2018/01/15,08:30,0.888,1.483,0.928,1.758,1.182,0.486,0.875,0.841,�쐼,5.3,��
2018/01/15,08:40,0.887,1.485,0.927,1.756,1.186,0.488,0.875,0.841,�쐼,4.8,��
2018/01/15,08:50,0.888,1.480,0.926,1.761,1.182,0.488,0.877,0.841,�쐼,4.3,��
2018/01/15,09:00,0.890,1.481,0.926,1.758,1.183,0.488,0.877,0.841,���쐼,3.5,��
2018/01/15,09:10,0.890,1.483,0.925,1.758,1.186,0.489,0.878,0.841,�쐼,3.3,��
2018/01/15,09:20,0.889,1.480,0.926,1.757,1.185,0.490,0.874,0.841,�쐼,4.1,��
2018/01/15,09:30,0.889,1.480,0.926,1.759,1.186,0.490,0.877,0.841,��쐼,4.0,��
2018/01/15,09:40,0.891,1.484,0.927,1.759,1.184,0.489,0.876,0.840,�쐼,4.4,��
2018/01/15,09:50,0.891,1.481,0.930,1.761,1.187,0.490,0.875,0.840,�쐼,6.3,��
2018/01/15,10:00,0.895,1.480,0.929,1.763,1.186,0.488,0.875,0.841,�쐼,6.0,��
2018/01/15,10:10,0.896,1.483,0.927,1.762,1.186,0.489,0.877,0.841,�쐼,6.3,��
2018/01/15,10:20,0.891,1.484,0.930,1.757,1.189,0.490,0.876,0.842,�쐼,6.7,��
2018/01/15,10:30,0.890,1.482,0.932,1.760,1.188,0.489,0.874,0.842,�쐼,8.3,��
2018/01/15,10:40,0.889,1.480,0.931,1.758,1.185,0.490,0.876,0.842,�쐼,7.4,��
2018/01/15,10:50,0.892,1.483,0.931,1.759,1.189,0.489,0.877,0.843,�쐼,8.0,��
2018/01/15,11:00,0.892,1.482,0.931,1.763,1.189,-,0.877,0.844,�쐼,8.4,��
2018/01/15,11:10,0.893,1.486,0.932,1.761,1.187,-,0.877,0.842,��쐼,7.9,��
2018/01/15,11:20,0.891,1.484,0.929,1.766,1.186,-,0.877,0.843,�쐼,6.7,��
2018/01/15,11:30,0.892,1.484,0.930,1.761,1.188,-,0.877,0.842,��쐼,6.7,��
2018/01/15,11:40,0.893,1.485,0.932,1.764,1.188,-,0.878,0.841,�쐼,7.9,��
2018/01/15,11:50,0.895,1.490,0.930,1.761,1.190,-,0.877,0.843,�쐼,8.7,��
2018/01/15,12:00,0.894,1.490,0.934,1.762,1.191,-,0.877,0.844,�쐼,7.9,��
2018/01/15,12:10,0.894,1.486,0.933,1.767,1.190,-,0.878,0.842,�쐼,6.9,��
2018/01/15,12:20,0.895,1.489,0.934,1.763,1.191,-,0.877,0.843,��쐼,6.8,��
2018/01/15,12:30,0.894,1.486,0.935,1.763,1.190,-,0.877,0.843,�쐼,6.1,��
2018/01/15,12:40,0.895,1.485,0.936,1.767,1.192,-,0.875,0.843,��쐼,7.4,��
2018/01/15,12:50,0.893,1.486,0.934,1.765,1.191,-,0.878,0.842,��쐼,6.5,��
2018/01/15,13:00,0.897,1.488,0.935,1.763,1.192,-,0.879,0.844,�쐼,3.7,��
2018/01/15,13:10,0.895,1.488,0.937,1.763,1.192,-,0.879,0.843,�쐼,6.0,��
2018/01/15,13:20,0.896,1.488,0.937,1.766,1.193,-,0.879,0.843,��쐼,7.7,��
2018/01/15,13:30,0.894,1.488,0.937,1.765,1.194,-,0.880,0.844,��쐼,5.2,��
2018/01/15,13:40,0.897,1.485,0.936,1.765,1.191,-,0.880,0.842,��쐼,5.1,��
2018/01/15,13:50,0.898,1.487,0.938,1.769,1.193,-,0.880,0.844,�쐼,6.1,��
2018/01/15,14:00,0.899,1.488,0.936,1.769,1.195,-,0.879,0.844,��쐼,6.0,��
2018/01/15,14:10,0.895,1.487,0.938,1.767,1.195,-,0.879,0.842,��쐼,5.6,��
2018/01/15,14:20,0.896,1.483,0.939,1.767,1.192,-,0.879,0.841,��,5.4,��
2018/01/15,14:30,0.896,1.487,0.939,1.766,1.195,-,0.881,0.842,��,6.4,��
2018/01/15,14:40,0.895,1.485,0.937,1.766,1.192,-,0.881,0.841,��쐼,4.9,��
2018/01/15,14:50,0.896,1.486,0.938,1.766,1.192,-,0.882,0.842,��,4.4,��
2018/01/15,15:00,0.895,1.486,0.935,1.767,1.195,-,0.881,0.842,��쐼,4.7,��
2018/01/15,15:10,0.895,1.489,0.938,1.766,1.194,-,0.882,0.843,��,6.1,��
2018/01/15,15:20,0.895,1.490,0.938,1.768,1.195,-,0.883,0.843,��쐼,6.0,��
2018/01/15,15:30,0.898,1.491,0.938,1.769,1.195,-,0.881,0.843,��쐼,5.7,��
2018/01/15,15:40,0.897,1.489,0.939,1.768,1.194,-,0.881,0.844,��쐼,5.6,��
2018/01/15,15:50,0.898,1.490,0.939,1.765,1.194,-,0.882,0.843,��,4.8,��
2018/01/15,16:00,0.898,1.491,0.936,1.767,1.194,0.494,0.881,0.846,��쐼,5.1,��
2018/01/15,16:10,0.896,1.489,0.937,1.767,1.193,0.494,0.881,0.842,��,5.1,��
2018/01/15,16:20,0.894,1.489,0.938,1.765,1.194,0.493,0.879,0.842,��쐼,5.6,��
2018/01/15,16:30,0.894,1.491,0.936,1.768,1.192,0.492,0.881,0.842,��쐼,5.6,��
2018/01/15,16:40,0.895,1.491,0.937,1.766,1.195,0.493,0.878,0.843,��쐼,5.5,��
2018/01/15,16:50,0.896,1.488,0.935,1.763,1.193,0.493,0.880,0.842,��,5.6,��
2018/01/15,17:00,0.894,1.491,0.937,1.768,1.195,0.492,0.879,0.842,��,6.6,��
2018/01/15,17:10,0.893,1.488,0.936,1.766,1.193,0.492,0.878,0.843,��,6.9,��
2018/01/15,17:20,0.894,1.494,0.938,1.767,1.190,0.492,0.881,0.843,��,6.6,��
2018/01/15,17:30,0.895,1.490,0.939,1.767,1.194,0.493,0.880,0.844,��,7.1,��
2018/01/15,17:40,0.897,1.492,0.937,1.765,1.193,0.492,0.880,0.843,��쐼,6.8,��
2018/01/15,17:50,0.893,1.491,0.937,1.762,1.193,0.493,0.880,0.843,��쐼,6.3,��
2018/01/15,18:00,0.894,1.494,0.935,1.765,1.190,0.494,0.880,0.843,��쐼,6.2,��
2018/01/15,18:10,0.895,1.489,0.937,1.767,1.193,0.492,0.878,0.842,��쐼,6.3,��
2018/01/15,18:20,0.895,1.490,0.936,1.765,1.191,0.493,0.878,0.844,��쐼,5.4,��
2018/01/15,18:30,0.898,1.489,0.935,1.767,1.191,0.491,0.878,0.843,�쐼,5.6,��
2018/01/15,18:40,0.895,1.489,0.936,1.765,1.193,0.490,0.880,0.842,�쐼,6.0,��
2018/01/15,18:50,0.896,1.493,0.937,1.768,1.192,0.491,0.878,0.844,�쐼,5.5,��
2018/01/15,19:00,0.899,1.492,0.935,1.766,1.192,0.493,0.881,0.843,��,4.7,��
2018/01/15,19:10,0.896,1.493,0.935,1.766,1.191,0.492,0.878,0.845,��,7.9,��
2018/01/15,19:20,0.895,1.491,0.937,1.767,1.194,0.491,0.878,0.844,��,8.5,��
2018/01/15,19:30,0.894,1.493,0.938,1.767,1.192,0.491,0.879,0.843,��,8.1,��
2018/01/15,19:40,0.897,1.491,0.937,1.769,1.192,0.492,0.878,0.843,��,7.5,��
2018/01/15,19:50,0.896,1.491,0.936,1.768,1.192,0.491,0.878,0.844,��,7.0,��
2018/01/15,20:00,0.896,1.492,0.937,1.767,1.189,0.490,0.877,0.843,��,7.9,��
2018/01/15,20:10,0.896,1.487,0.936,1.766,1.194,0.493,0.879,0.842,��,7.7,��
2018/01/15,20:20,0.897,1.491,0.936,1.766,1.191,0.493,0.878,0.842,��,8.3,��
2018/01/15,20:30,0.896,1.493,0.935,1.768,1.193,0.492,0.877,0.843,��,7.5,��
2018/01/15,20:40,0.897,1.493,0.936,1.766,1.192,0.492,0.879,0.842,��,6.0,��
2018/01/15,20:50,0.897,1.490,0.936,1.765,1.192,0.491,0.878,0.843,��,6.2,��
2018/01/15,21:00,0.895,1.488,0.935,1.764,1.192,0.492,0.878,0.841,��,4.4,��
2018/01/15,21:10,0.896,1.489,0.936,1.766,1.191,0.492,0.875,0.843,��,4.6,��
2018/01/15,21:20,0.897,1.491,0.935,1.767,1.189,0.491,0.879,0.843,��쐼,4.9,��
2018/01/15,21:30,0.897,1.491,0.937,1.763,1.191,0.491,0.878,0.841,��,5.1,��
2018/01/15,21:40,0.895,1.490,0.935,1.764,1.189,0.490,0.876,0.841,��쐼,4.4,��
2018/01/15,21:50,0.898,1.491,0.936,1.765,1.191,0.490,0.877,0.841,��쐼,3.9,��
2018/01/15,22:00,0.895,1.487,0.934,1.765,1.190,0.491,0.876,0.842,��쐼,2.8,��
2018/01/15,22:10,0.895,1.490,0.934,1.763,1.193,0.490,0.877,0.843,���쐼,3.4,��
2018/01/15,22:20,0.894,1.489,0.935,1.767,1.192,0.490,0.877,0.843,��,5.3,��
2018/01/15,22:30,0.896,1.491,0.935,1.765,1.190,0.491,0.878,0.841,��,4.9,��
2018/01/15,22:40,0.898,1.492,0.936,1.771,1.192,0.490,0.877,0.843,��,6.7,��
2018/01/15,22:50,0.896,1.490,0.938,1.765,1.189,0.490,0.878,0.843,��,7.6,��
2018/01/15,23:00,0.895,1.490,0.937,1.769,1.191,0.491,0.880,0.845,���k��,8.0,��
2018/01/15,23:10,0.896,1.492,0.936,1.766,1.191,0.492,0.880,0.843,���k��,9.4,��
2018/01/15,23:20,0.895,1.492,0.936,1.767,1.192,0.491,0.879,0.841,�k��,3.9,��
2018/01/15,23:30,0.896,1.490,0.936,1.766,1.194,0.490,0.880,0.844,�k��,5.2,��
2018/01/15,23:40,0.896,1.489,0.937,1.767,1.191,0.490,0.880,0.843,�k��,6.4,��
2018/01/15,23:50,0.895,1.490,0.936,1.768,1.192,0.490,0.881,0.843,�k��,6.5,��
